When you browse on this site, cookies collect data to enhance your experience and personalize the content and advertising you see.
Visit our Privacy Policy to learn more. By continuing to use the site, you agree to this use of cookies and data.
  • In Österreich
  • Länderverzeichnis
  • Für 7 Tage
  • Wassertemperatur
  • Satellitenkarten
  • Wetterkarte
  • News
  • Widgets
  • user-avatar
    Anmelden

    Stündliche Wetter Masari Sharif

    Heute, 26 Juni, Mittwoch

    Zeit Temperatur Niederschläge Wind Luftdruck Luftfeuchtigkeit
    00:00 +24°C° 0 mm 1 m/S 653 mmHg 16%
    01:00 +23°C° 0 mm 1 m/S 653 mmHg 16%
    02:00 +23°C° 0 mm 1 m/S 653 mmHg 16%
    03:00 +22°C° 0 mm 1 m/S 653 mmHg 17%
    04:00 +22°C° 0 mm 1 m/S 653 mmHg 17%
    05:00 +24°C° 0 mm 2 m/S 654 mmHg 15%
    06:00 +26°C° 0 mm 2 m/S 655 mmHg 13%
    07:00 +28°C° 0 mm 2 m/S 656 mmHg 12%
    08:00 +29°C° 0 mm 2 m/S 655 mmHg 11%
    09:00 +30°C° 0 mm 2 m/S 655 mmHg 11%
    10:00 +31°C° 0 mm 2 m/S 655 mmHg 11%
    11:00 +33°C° 0 mm 3 m/S 656 mmHg 10%
    12:00 +34°C° 0 mm 3 m/S 656 mmHg 10%
    13:00 +34°C° 0 mm 3 m/S 656 mmHg 9%
    14:00 +34°C° 0 mm 4 m/S 655 mmHg 9%
    15:00 +34°C° 0 mm 4 m/S 655 mmHg 8%
    16:00 +35°C° 0 mm 4 m/S 654 mmHg 8%
    17:00 +33°C° 0 mm 4 m/S 654 mmHg 9%
    18:00 +30°C° 0 mm 3 m/S 654 mmHg 10%
    19:00 +29°C° 0 mm 3 m/S 654 mmHg 11%
    20:00 +27°C° 0 mm 2 m/S 653 mmHg 11%
    21:00 +26°C° 0 mm 2 m/S 653 mmHg 12%
    22:00 +25°C° 0 mm 1 m/S 652 mmHg 13%
    23:00 +25°C° 0 mm 1 m/S 652 mmHg 14%

    Morgen, 27 Juni, Donnerstag

    Zeit Temperatur Niederschläge Wind Luftdruck Luftfeuchtigkeit
    00:00 +24°C° 0 mm 1 m/S 652 mmHg 14%
    01:00 +24°C° 0 mm 2 m/S 652 mmHg 15%
    02:00 +24°C° 0 mm 2 m/S 651 mmHg 15%
    03:00 +23°C° 0 mm 2 m/S 651 mmHg 15%
    04:00 +23°C° 0 mm 2 m/S 651 mmHg 15%
    05:00 +25°C° 0 mm 2 m/S 652 mmHg 13%
    06:00 +27°C° 0 mm 3 m/S 653 mmHg 12%
    07:00 +29°C° 0 mm 3 m/S 654 mmHg 11%
    08:00 +30°C° 0 mm 3 m/S 654 mmHg 11%
    09:00 +32°C° 0 mm 4 m/S 654 mmHg 11%
    10:00 +33°C° 0 mm 4 m/S 654 mmHg 11%
    11:00 +34°C° 0 mm 5 m/S 654 mmHg 11%
    12:00 +34°C° 0 mm 5 m/S 654 mmHg 10%
    13:00 +35°C° 0 mm 6 m/S 653 mmHg 10%
    14:00 +35°C° 0 mm 5 m/S 653 mmHg 10%
    15:00 +35°C° 0 mm 5 m/S 653 mmHg 10%
    16:00 +35°C° 0 mm 4 m/S 653 mmHg 10%
    17:00 +33°C° 0 mm 4 m/S 652 mmHg 11%
    18:00 +32°C° 0 mm 4 m/S 652 mmHg 12%
    19:00 +30°C° 0 mm 3 m/S 652 mmHg 13%
    20:00 +29°C° 0 mm 3 m/S 652 mmHg 14%
    21:00 +28°C° 0 mm 2 m/S 651 mmHg 15%
    22:00 +27°C° 0 mm 2 m/S 651 mmHg 16%
    23:00 +26°C° 0 mm 2 m/S 651 mmHg 17%

    übermorgen, 28 Juni, Freitag

    Zeit Temperatur Niederschläge Wind Luftdruck Luftfeuchtigkeit
    00:00 +25°C° 0 mm 2 m/S 650 mmHg 18%
    01:00 +25°C° 0 mm 2 m/S 650 mmHg 19%
    02:00 +24°C° 0 mm 2 m/S 650 mmHg 20%
    03:00 +24°C° 0 mm 2 m/S 650 mmHg 20%
    04:00 +23°C° 0 mm 2 m/S 650 mmHg 21%
    05:00 +25°C° 0 mm 2 m/S 650 mmHg 19%
    06:00 +27°C° 0 mm 2 m/S 651 mmHg 17%
    07:00 +29°C° 0 mm 2 m/S 652 mmHg 15%
    08:00 +30°C° 0 mm 2 m/S 652 mmHg 14%
    09:00 +33°C° 0 mm 3 m/S 653 mmHg 13%
    10:00 +34°C° 0 mm 3 m/S 653 mmHg 13%
    11:00 +34°C° 0 mm 4 m/S 653 mmHg 12%
    12:00 +35°C° 0 mm 4 m/S 652 mmHg 12%
    13:00 +36°C° 0 mm 5 m/S 652 mmHg 12%
    14:00 +35°C° 0 mm 6 m/S 652 mmHg 12%
    15:00 +35°C° 0 mm 6 m/S 652 mmHg 12%
    16:00 +35°C° 0 mm 7 m/S 652 mmHg 13%
    17:00 +33°C° 0 mm 6 m/S 651 mmHg 16%
    18:00 +32°C° 0 mm 5 m/S 651 mmHg 19%
    19:00 +29°C° 0 mm 4 m/S 651 mmHg 23%
    20:00 +28°C° 0 mm 3 m/S 651 mmHg 26%
    21:00 +27°C° 0 mm 2 m/S 651 mmHg 29%
    22:00 +26°C° 0 mm 1 m/S 651 mmHg 32%
    23:00 +25°C° 0 mm 1 m/S 651 mmHg 33%

    29 Juni, Samstag

    Zeit Temperatur Niederschläge Wind Luftdruck Luftfeuchtigkeit
    00:00 +25°C° 0 mm 1 m/S 651 mmHg 33%
    01:00 +24°C° 0 mm 1 m/S 650 mmHg 34%
    02:00 +24°C° 0 mm 1 m/S 650 mmHg 35%
    03:00 +23°C° 0 mm 1 m/S 650 mmHg 36%
    04:00 +23°C° 0 mm 1 m/S 650 mmHg 37%
    05:00 +25°C° 0 mm 1 m/S 650 mmHg 33%
    06:00 +26°C° 0 mm 1 m/S 651 mmHg 29%
    07:00 +28°C° 0 mm 1 m/S 652 mmHg 26%
    08:00 +29°C° 0 mm 1 m/S 652 mmHg 24%
    09:00 +30°C° 0 mm 2 m/S 652 mmHg 22%
    10:00 +31°C° 0 mm 2 m/S 652 mmHg 20%
    11:00 +33°C° 0 mm 3 m/S 652 mmHg 19%
    12:00 +34°C° 0 mm 3 m/S 652 mmHg 18%
    13:00 +34°C° 0 mm 4 m/S 651 mmHg 17%
    14:00 +35°C° 0 mm 4 m/S 651 mmHg 17%
    15:00 +35°C° 0 mm 3 m/S 651 mmHg 16%
    16:00 +35°C° 0 mm 3 m/S 651 mmHg 16%
    17:00 +33°C° 0 mm 3 m/S 651 mmHg 17%
    18:00 +31°C° 0 mm 2 m/S 651 mmHg 18%
    19:00 +30°C° 0 mm 2 m/S 650 mmHg 20%
    20:00 +29°C° 0 mm 2 m/S 650 mmHg 16%
    21:00 +28°C° 0 mm 1 m/S 650 mmHg 17%
    22:00 +26°C° 0 mm 1 m/S 650 mmHg 18%
    23:00 +26°C° 0 mm 1 m/S 650 mmHg 19%

    30 Juni, Sonntag

    Zeit Temperatur Niederschläge Wind Luftdruck Luftfeuchtigkeit
    00:00 +25°C° 0 mm 1 m/S 649 mmHg 19%
    01:00 +25°C° 0 mm 1 m/S 649 mmHg 20%
    02:00 +24°C° 0 mm 1 m/S 649 mmHg 20%
    03:00 +24°C° 0 mm 1 m/S 649 mmHg 21%
    04:00 +23°C° 0 mm 1 m/S 649 mmHg 21%
    05:00 +26°C° 0 mm 1 m/S 650 mmHg 19%
    06:00 +28°C° 0 mm 1 m/S 650 mmHg 16%
    07:00 +30°C° 0 mm 1 m/S 651 mmHg 14%
    08:00 +31°C° 0 mm 1 m/S 651 mmHg 13%
    09:00 +34°C° 0 mm 2 m/S 652 mmHg 13%
    10:00 +35°C° 0 mm 2 m/S 652 mmHg 12%
    11:00 +36°C° 0 mm 2 m/S 652 mmHg 12%
    12:00 +36°C° 0 mm 2 m/S 652 mmHg 11%
    13:00 +37°C° 0 mm 3 m/S 652 mmHg 10%
    14:00 +37°C° 0 mm 3 m/S 651 mmHg 10%
    15:00 +37°C° 0 mm 4 m/S 651 mmHg 10%
    16:00 +38°C° 0 mm 4 m/S 651 mmHg 10%
    17:00 +36°C° 0 mm 3 m/S 651 mmHg 11%
    18:00 +34°C° 0 mm 3 m/S 651 mmHg 12%
    19:00 +31°C° 0 mm 2 m/S 650 mmHg 14%
    20:00 +30°C° 0 mm 1 m/S 650 mmHg 15%
    21:00 +29°C° 0 mm 1 m/S 650 mmHg 15%
    22:00 +28°C° 0 mm 1 m/S 650 mmHg 16%
    23:00 +27°C° 0 mm 1 m/S 650 mmHg 17%

    1 Juli, Montag

    Zeit Temperatur Niederschläge Wind Luftdruck Luftfeuchtigkeit
    00:00 +27°C° 0 mm 1 m/S 650 mmHg 18%
    01:00 +26°C° 0 mm 1 m/S 649 mmHg 18%
    02:00 +26°C° 0 mm 1 m/S 649 mmHg 19%
    03:00 +25°C° 0 mm 1 m/S 649 mmHg 19%
    04:00 +25°C° 0 mm 1 m/S 649 mmHg 19%
    05:00 +28°C° 0 mm 1 m/S 650 mmHg 17%
    06:00 +30°C° 0 mm 1 m/S 651 mmHg 15%
    07:00 +32°C° 0 mm 2 m/S 652 mmHg 12%
    08:00 +35°C° 0 mm 2 m/S 653 mmHg 12%
    09:00 +36°C° 0 mm 2 m/S 653 mmHg 11%
    10:00 +37°C° 0 mm 2 m/S 653 mmHg 10%
    11:00 +38°C° 0 mm 2 m/S 653 mmHg 10%
    12:00 +38°C° 0 mm 2 m/S 653 mmHg 9%
    13:00 +39°C° 0 mm 3 m/S 653 mmHg 8%
    14:00 +39°C° 0 mm 3 m/S 652 mmHg 8%
    15:00 +40°C° 0 mm 4 m/S 652 mmHg 8%
    16:00 +41°C° 0 mm 4 m/S 652 mmHg 8%
    17:00 +37°C° 0 mm 3 m/S 652 mmHg 9%
    18:00 +35°C° 0 mm 2 m/S 651 mmHg 11%
    19:00 +31°C° 0 mm 1 m/S 651 mmHg 13%
    20:00 +31°C° 0 mm 1 m/S 651 mmHg 13%
    21:00 +31°C° 0 mm 2 m/S 651 mmHg 14%
    22:00 +30°C° 0 mm 2 m/S 651 mmHg 14%
    23:00 +30°C° 0 mm 2 m/S 651 mmHg 14%
    Mehr zeigen